MST,Max TemperatureF,Mean TemperatureF,Min TemperatureF,Max Dew PointF,MeanDew PointF,Min DewpointF,Max Humidity, Mean Humidity, Min Humidity, Max Sea Level PressureIn, Mean Sea Level PressureIn, Min Sea Level PressureIn, Max VisibilityMiles, Mean VisibilityMiles, Min VisibilityMiles, Max Wind SpeedMPH, Mean Wind SpeedMPH, Max Gust SpeedMPH,PrecipitationIn, CloudCover, Events, WindDirDegrees
2012-11-1,43,37,31,34,30,23,100,79,57,30.13,30.00,29.90,10,6,0,23,14,30,0.00,6,Fog,116
2012-11-2,41,35,28,39,31,21,100,86,72,30.16,30.03,29.93,10,6,1,16,9,21,0.05,8,Rain,219
2012-11-3,34,32,29,34,30,27,100,91,82,30.23,30.17,30.08,10,7,2,15,8,18,0.00,8,,338
2012-11-4,51,41,30,42,34,28,100,88,76,30.26,30.12,30.00,10,6,0,23,13,28,0.08,8,Fog-Rain,236
2012-11-5,62,48,33,44,35,30,100,76,51,30.22,30.04,29.81,10,7,1,37,13,49,T,5,,254
2012-11-6,51,40,28,29,26,22,78,56,33,30.16,30.12,30.05,10,10,10,28,13,35,0.00,1,,285
2012-11-7,66,47,28,36,29,23,79,54,28,30.06,29.82,29.67,10,10,5,25,12,32,0.00,0,,195
2012-11-8,43,37,30,37,29,27,92,81,70,30.12,30.04,29.83,10,10,7,21,14,31,0.00,8,,29
2012-11-9,29,27,24,27,25,23,100,96,92,30.07,29.91,29.76,6,2,0,25,18,31,0.02,8,Fog-Rain-Snow,89
2012-11-10,24,15,6,23,15,2,96,88,80,29.96,29.79,29.69,10,7,1,26,17,32,0.07,7,Snow,341
2012-11-11,15,10,4,9,5,0,88,81,73,30.16,30.01,29.85,10,10,5,33,22,40,T,5,Snow,287
2012-11-12,30,17,4,22,13,0,87,78,69,30.22,30.20,30.17,10,10,10,16,11,,0.00,1,,263
2012-11-13,43,34,25,30,26,21,81,72,62,30.20,30.17,30.14,10,10,10,16,10,20,0.00,3,,260
2012-11-14,49,39,29,29,27,24,78,62,46,30.19,30.10,30.02,10,10,10,18,11,22,0.00,0,,253
2012-11-15,44,31,18,26,23,16,96,71,45,30.44,30.34,30.22,10,10,10,18,10,24,0.00,0,,196
2012-11-16,51,39,27,30,27,24,85,64,42,30.19,30.04,29.97,10,10,10,21,9,26,0.00,1,,190
2012-11-17,58,44,30,32,29,25,85,60,35,30.05,30.00,29.93,10,10,10,13,5,15,0.00,2,,109
2012-11-18,57,43,29,35,31,26,92,68,43,29.99,29.87,29.76,10,10,10,18,10,23,0.00,1,,195
2012-11-19,54,40,25,28,25,22,85,57,28,30.14,30.08,30.00,10,10,10,15,8,18,0.00,1,,212
2012-11-20,62,45,28,32,29,24,78,55,32,30.00,29.92,29.81,10,10,10,16,8,20,0.00,0,,201
2012-11-21,66,49,32,37,33,27,85,58,31,29.80,29.70,29.55,10,10,10,17,8,22,0.00,1,,225
2012-11-22,39,28,17,37,20,7,100,80,60,30.57,30.12,29.73,10,8,1,35,21,44,T,7,Rain-Snow,305
2012-11-23,30,19,7,16,11,3,88,68,47,30.59,30.43,30.09,10,10,10,21,9,25,T,3,,226
2012-11-24,50,36,22,34,24,15,96,75,54,30.03,29.93,29.82,10,10,10,26,13,35,T,2,,276
2012-11-25,27,15,3,25,15,-2,92,84,76,30.38,30.13,29.95,10,10,10,17,8,22,0.00,4,,315
2012-11-26,37,20,2,22,14,-3,92,72,52,30.44,30.32,30.15,10,10,10,23,11,28,0.00,0,,244
2012-11-27,35,28,20,26,18,10,92,74,56,30.28,30.20,30.12,10,10,10,14,8,17,0.00,0,,267
2012-11-28,43,29,15,25,18,12,92,67,41,30.22,30.09,30.02,10,10,8,13,8,15,0.00,0,,210
2012-11-29,22,19,16,19,16,12,92,88,84,30.08,30.01,29.91,10,5,0,17,10,22,0.00,6,Fog,113
2012-11-30,34,26,18,28,22,16,92,84,75,30.05,29.85,29.67,10,9,6,21,11,25,0.00,1,,163